Regional Weather Roundup
Issued by NWS Upton, NY

Current Version | Previous Version | Graphics & Text | Print | Product List | Glossary Off
Versions: 1 2 3 4 5 6 7 8 9 10 11 12 13 14 15 16 17 18 19 20 21 22 23 24 25 26 27 28 29 30 31 32 33 34 35 36 37 38 39 40 41 42 43 44 45 46 47 48 49 50

000
ASUS41 KOKX 252205
RWROKX

REGIONAL WEATHER ROUNDUP
NATIONAL WEATHER SERVICE NEW YORK NY
500 PM EST TUE NOV 25 2014

NOTE: "FAIR" INDICATES FEW OR NO CLOUDS BELOW 12,000 FEET WITH NO
SIGNIFICANT WEATHER AND/OR OBSTRUCTIONS TO VISIBILITY.

NYZ071-072-176-178-NJZ106-104-252300-
NEW YORK CITY METRO AREA


CITY           SKY/WX    TMP DP  RH WIND       PRES   REMARKS
CENTRAL PARK   MOCLDY    53  28  38 W9        30.05R
LAGUARDIA APRT CLOUDY    53  28  38 W8        30.02R
KENNEDY INTL   CLOUDY    51  31  46 SW9       30.04R
NEWARK/LIBERTY MOCLDY    51  29  42 SW8       30.03R
BRNX BOT. GARD   N/A    N/A N/A N/A SW12      30.03S
TETERBORO      MOCLDY    52  29  41 SW7       30.01R
$$

NYZ177-179-078>081-252300-
LONG ISLAND NEW YORK

CITY           SKY/WX    TMP DP  RH WIND       PRES   REMARKS
FARMINGDALE    NOT AVBL
ISLIP          CLOUDY    51  31  46 SW5       30.01R
SHIRLEY        CLOUDY    52  30  43 SW5       30.04R
WESTHAMPTON    CLOUDY    49  38  65 SW3       30.04R
MONTAUK POINT    N/A     54  33  45 SW5       30.03R
$$

NYZ052-065-067-252300-
HUDSON VALLEY

CITY           SKY/WX    TMP DP  RH WIND       PRES   REMARKS
WHITE PLAINS   MOCLDY    49  28  44 CALM      30.00R
NEWBURGH       PTCLDY    48  28  46 CALM      30.00R
MONTGOMERY     MOCLDY    48  26  42 W3        29.99R
POUGHKEEPSIE   MOCLDY    52  27  38 CALM      30.00R
ALBANY         MOCLDY    47  25  42 SW5       29.98R
$$

NJZ001-105-106-008-010-013-015-019>022-104-252300-
NEW JERSEY

CITY           SKY/WX    TMP DP  RH WIND       PRES   REMARKS
NEWARK/LIBERTY MOCLDY    51  29  42 SW8       30.03R
TETERBORO      MOCLDY    52  29  41 SW7       30.01R
CALDWELL       MOCLDY    51  27  39 SW3       30.03R
MORRISTOWN     MOCLDY    50  28  43 SW5       30.03R
SOMERVILLE     MOCLDY    48  29  47 CALM      30.02R
SUSSEX         CLOUDY    48  27  44 SW3       30.01R
ANDOVER          N/A     47  28  47 CALM      30.02R
TRENTON        CLOUDY    50  29  44 W6        30.03R
MILLVILLE      CLOUDY    49  34  56 CALM      30.07R
ATLANTIC CITY  CLOUDY    52  32  46 CALM      30.07R
WRIGHTSTOWN    CLOUDY    50  31  47 W3        30.03R
TOMS RIVER     CLOUDY    48  37  66 CALM      30.06R
BELMAR         CLOUDY    52  28  40 SW3       30.05R
$$

PAZ047>061-062-071-252300-
EASTERN PENNSYLVANIA

CITY           SKY/WX    TMP DP  RH WIND       PRES   REMARKS
PHILADELPHIA   CLOUDY    52  31  44 SW7       30.07R
ALLENTOWN      MOCLDY    45  27  49 W3        30.03R
SCRANTON       CLEAR     47  26  44 SW6       30.01R
$$

CTZ002-004>006-009-010-012-RIZ004-006-007-MAZ004-011-015-252300-
SOUTHERN NEW ENGLAND
 IN CT

CITY           SKY/WX    TMP DP  RH WIND       PRES   REMARKS
BRADLEY INTL   CLOUDY    51  27  39 SW9       29.98R
HARTFORD       CLOUDY    52  26  36 SW8       30.00R
DANBURY        MOCLDY    47  28  47 CALM      30.01R
WTRBRY/OXFORD  MOCLDY    48  27  43 CALM      30.01R
BRIDGEPORT     CLOUDY    51  40  65 SW7       30.01R
MERIDEN        CLOUDY    49  28  44 SW3       30.00R
NEW HAVEN      CLOUDY    52  32  46 S6        30.01R
CHESTER        FAIR      52  28  40 CALM      30.01R
GROTON         CLOUDY    51  39  63 W9        30.00R
WILLIMANTIC    CLOUDY    53  26  35 W6        29.99R

 IN RI

CITY           SKY/WX    TMP DP  RH WIND       PRES   REMARKS
PROVIDENCE     CLOUDY    54  30  40 SW8       29.98R
BLOCK ISLAND   CLOUDY    54  36  50 W12       30.00R
WESTERLY       CLOUDY    52  42  69 SW9       30.00R

 IN MA

CITY           SKY/WX    TMP DP  RH WIND       PRES   REMARKS
BOSTON         CLOUDY    56  26  31 SW14G22   29.95R
WORCESTER      CLOUDY    48  26  42 SW12      29.94R
WESTFIELD      CLOUDY    48  27  44 SW8       29.97R
PROVINCETOWN   CLOUDY    54  43  66 SW13      29.96R
NANTUCKET      CLOUDY    54  44  69 W12       29.99R
$$

ANZ330-335-338-340-345-350-353-355-252300-
COASTAL MARINE OBSERVATIONS


STATION/POSITION TIME  SKY/WX   TEMP    WIND        PRES    VSBY  WAVE
                                AIR SEA DIR/SP/G                  HT/PER
                 (UTC)          (F)     (DEG/KT/KT) (MB)    (MI)  (FT/S)
NY HARB ENTRANCE 2200            53 53  260/  8/ 10 1018.0          4/ 9
4S FIRE IS       2200               53                N/A           5/ 9
20S FIRE ISLAND  2200            54 55  280/ 10/ 12 1016.9          6/10
23SW MTP         2200                                 N/A           7/ 9
HUDSON CANYON    2200            56 59  310/ 10/ 14 1017.3          7/10
EXECUTION ROCKS  2200            51 48  240/  8/ 10   N/A
WESTERN LI SOUND 2200            52     220/  8/ 10   N/A           0
CENTRAL LI SOUND 2100            52 50  240/ 10/ 12   N/A           2/ 4
EASTERN LI SOUND 2100            53 53  240/ 14/ 17   N/A
ROBBINS REEF     2200            53     250/  9/ 10 1015.7
$$


>>>>>>>>>>>>>>>>>>>>>>>>>>>> KEY <<<<<<<<<<<<<<<<<<<<<<<<<<<
>                                                          <
>     SKY/WX - SKY CONDITION/PRESENT WEATHER               <
>     TMP    - TEMPERATURE IN FAHRENHEIT                   <
>     DP     - DEWPOINT IN FAHRENHEIT                      <
>     RH     - RELATIVE HUMIDITY IN PERCENT                <
>     WIND   - DIRECTION AND SPEED IN MPH                  <
>     PRES   - MEAN SEA LEVEL PRESSURE IN INCHES OF HG     <
>     WCI    - WIND CHILL INDEX                            <
>     VSB    - VISIBILITY IN MILES                         <
>     HX     - HEAT INDEX                                  <
>     TC     - TEMPERATURE IN CELSIUS                      <
>     VRB    - VARIABLE WIND DIRECTION                     <
>                                                          <
>>>>>>>>>>>>>>>>>>>>>>>>>>>> KEY <<<<<<<<<<<<<<<<<<<<<<<<<<<




USA.gov is the U.S. government's official web portal to all federal, state and local government web resources and services.